Regional Weather Roundup
Issued by NWS Grand Forks, ND

Home | Current Version | Previous Version | Graphics & Text | Print | Product List | Glossary On
Versions: 1 2 3 4 5 6 7 8 9 10 11 12 13 14 15 16 17 18 19 20 21 22 23 24 25 26 27 28 29 30 31 32 33 34 35 36 37 38 39 40 41 42 43 44 45 46 47 48 49 50
000
ASUS43 KFGF 172331
RWRFGF
PRAIRIE TO PINES  WEATHER ROUNDUP
NATIONAL WEATHER SERVICE EASTERN NORTH DAKOTA/GRAND FORKS ND
500 PM CST WED JAN 17 2018

 **SATELLITE DATA USED TO AUGMENT SKY COVER AT AUTOMATED STATIONS**
 *****  WEATHER ACROSS EASTERN NORTH DAKOTA  *****

CITY           SKY/WX    TMP DP  RH WIND       PRES   REMARKS
GRAND FORKS    FAIR      33  24  69 W12       29.91R WCI  24
GRAND FRKS AFB FAIR      37  25  62 W10G17    29.90S
GRAND FRKS NWS   N/A     32 N/A N/A W9          N/A  WCI  24
DEVILS LAKE    FAIR      32  24  72 W21       29.93S WCI  20
FARGO          FAIR      32  23  69 SW16      30.00S WCI  21
WAHPETON ARPT  FAIR      28  19  69 W13       30.04F WCI  18
$$

 ***** WEATHER ACROSS CENTRAL AND WESTERN NORTH DAKOTA  *****

CITY           SKY/WX    TMP DP  RH WIND       PRES   REMARKS
BISMARCK       FAIR      37  25  61 W13       30.08S
MINOT          FAIR      36  22  56 W16       29.94F
JAMESTOWN      FAIR      33  24  69 W14       29.99F WCI  23
MINOT AFB      FAIR      34  23  64 W17       29.92F WCI  24
GARRISON         N/A     35  24  64 W18       30.00F WCI  24
WILLISTON      FAIR      31  22  69 S7        30.03F WCI  24
DICKINSON      FAIR      33  22  63 W14       30.05F WCI  23
HETTINGER      FAIR      33  23  66 W13       30.13F WCI  24
$$

 *****  OTHER AIRPORT OBSERVATIONS IN OUR AREA  *****

CITY           SKY/WX    TMP DP  RH WIND       PRES   REMARKS
WALHALLA       FAIR      36  27  69 CALM      29.82F
GRAFTON AIRPOR FAIR      28  25  86 SW10      29.88F WCI  19
VALLEY CITY AR FAIR      30  25  80 W16       30.00S WCI  19
CANDO          FAIR      30  23  74 W14       29.91S WCI  20
CAVALIER APRT    N/A     34  27  75 W10       29.82F
GWINNER          N/A     28  23  80 SW12      30.05S WCI  18
SHEYENNE NWR     N/A     32  23  70 SW8       29.95S WCI  25
ROLLA          FAIR      32  28  86 SW15      29.84S WCI  22
 ***** THE ABOVE OBSERVATIONS ARE NON NWS ARE NOT QUALITY
       CONTROLLED AND MAY MIS-REPORT RAIN FOR SNOW...
$$

  *****  WEATHER ACROSS NORTHERN MINNESOTA  *****

CITY           SKY/WX    TMP DP  RH WIND       PRES   REMARKS
FLAG ISLAND    FAIR      18  12  79 S7        29.78S WCI   8
WARROAD        FAIR      21  16  79 SW10      29.81S WCI  10
ROSEAU         FAIR      25  18  74 SW16      29.82S WCI  12
HALLOCK        FAIR      21  18  86 S13       29.84F WCI   9
THF RVR FALLS  FAIR      23  18  81 SW15      29.90R WCI  10
BAUDETTE       FAIR      22  13  68 SW9       29.80S WCI  12
WASKISH        FAIR      21  16  79 SW17      29.86R WCI   7
CROOKSTON      FAIR      21  18  86 SW12      29.94S WCI   9
STEPHEN NDAWN    N/A     25  19  80 SW9         N/A  WCI  15
GREENBUSH NDAW   N/A     25  19  80 SW13        N/A  WCI  13
$$
  *****  WEATHER ACROSS CENTRAL AND WEST MINNESOTA  *****

CITY           SKY/WX    TMP DP  RH WIND       PRES   REMARKS
FOSSTON        FAIR      18  12  79 S14       29.93S WCI   4
BEMIDJI        FAIR      27  16  63 W13       29.89S WCI  16
PARK RAPIDS    FAIR      25  15  66 W10       29.94S WCI  15
ELBOW LAKE     FAIR      28  21  76 SW9       30.05S HAZE    WCI  19
WADENA         FAIR      25  16  68 SW13      29.98F WCI  13
DETROIT LAKES  FAIR      28  19  69 SW9       29.99S WCI  20
MOORHEAD       FAIR      30  21  69 SW13      30.01F WCI  20
FERGUS FALLS   FAIR      25  18  74 W6        30.04R WCI  18
MORRIS MN      FAIR      30  21  69 W9        30.06R WCI  22
STAPLES        FAIR      27  16  63 W10       29.99S WCI  17
$$
  *****  WEATHER ELSEWHERE ACROSS MINNESOTA  *****

CITY           SKY/WX    TMP DP  RH WIND       PRES   REMARKS
DULUTH         FAIR       9   9 100 W22G32    29.86F WCI -11
INTRNTL FALLS  FAIR      23  11  60 SW8       29.80F WCI  14
ELY            FAIR      25  12  58 SW7       29.79F WCI  17
CLOQUET        FAIR      27   7  43 SW13      29.89F WCI  16
WHEATON        FAIR      32  19  59 W10       30.08F WCI  24
BRAINERD       FAIR      28  12  51 SW12      29.96S WCI  18
HIBBING        FAIR      26  12  55 SW5       29.84F WCI  20
ALEXANDRIA     FAIR      31  18  58 W12       30.03S WCI  22
SAINT CLOUD    FAIR      26  15  63 SW9       30.03F WCI  17
MINNEAPOLIS    FAIR      27  14  58 SW13G20   30.09F WCI  16
$$

  *****  WEATHER ACROSS SOUTH DAKOTA  *****

CITY           SKY/WX    TMP DP  RH WIND       PRES   REMARKS
SIOUX FALLS    FAIR      32  18  56 SW3       30.18F
BROOKINGS      FAIR      26  17  68 SW7       30.15R WCI  18
WATERTOWN      FAIR      28  18  66 SW7       30.10R WCI  21
HURON          FAIR      38  23  55 SW3       30.14F
SISSETON         N/A     34  22  61 W13       30.08R WCI  25
ABERDEEN       FAIR      39  24  55 W9        30.11R
MITCHELL       FAIR      35  23  61 W7        30.20R
PIERRE         FAIR      41  25  53 W13       30.16F
MOBRIDGE       FAIR      39  27  62 W10       30.10S
RAPID CITY     FAIR      43  24  47 S6        30.21S
$$

  *****  SOME WEATHER IN NEARBY STATES *****

CITY           SKY/WX    TMP DP  RH WIND       PRES   REMARKS
GLASGOW MT     FAIR      24  17  74 SE3       30.01F
GREAT FALLS MT FAIR      42  22  44 SW21G28   30.02S
CHEYENNE WY    FAIR      44  14  29 N13       30.26R
SCOTTSBLUFF NE FAIR      41  21  44 CALM      30.26S
OMAHA NE       FAIR      26  13  57 S16       30.37F WCI  14
DES MOINES IA  FAIR      24   9  52 SW15      30.37F WCI  11
DAVENPORT IA   FAIR      21  10  62 SW14      30.41F WCI   8
CHICAGO IL     MOCLDY    20   8  60 SW17G24   30.36F WCI   5
EAU CLAIRE WI  FAIR      24   9  52 SW15G26   30.08F WCI  11
LA CROSSE WI   FAIR      24  10  55 S18       30.19F WCI  10
$$

  *****  SOME NATIONAL WEATHER *****

CITY           SKY/WX    TMP DP  RH WIND       PRES   REMARKS
LA GUARDIA NY  CLOUDY    29  20  69 NW10      30.19R WCI  20
RALEIGH NC     LGT SNOW  26  24  92 NE14G22   30.22R VSB 3/4 WCI  14
ATLANTA GA     FAIR      23   9  55 NW22      30.37R WCI   8
NEW ORLEANS LA FAIR      35  14  42 N13       30.58R
OKLAHOMA CITY  FAIR      33   2  26 S12       30.52F WCI  24
ALBUQUERQUE NM CLOUDY    40  14  34 S3        30.30S
SALT LAKE CITY PTSUNNY   50  35  56 N10       30.35R
LOS ANGELES CA FAIR      66  56  70 W10       30.10F
BOISE ID       FAIR      50  34  54 SE7       30.24F
SEATTLE WA     LGT RAIN  49  44  83 W12       29.75R
$$

*** WEATHER ACROSS MANITOBA...SASKATCHEWAN AND ONTARIO ***
                ***ONTARIO***

CITY           SKY/WX    TMP DP  RH WIND       PRES   REMARKS
GERALDTON      PTCLDY    16   5  62 W5        29.72R WCI   9
THUNDER BAY    PTCLDY    25  14  63 W7        29.76S WCI  17
SIOUX LOOKOUT  PTCLDY    12   5  73 SW3       29.72S
TORONTO        PTCLDY    19   9  63 SW18G26   30.20F WCI   4
BIG TROUT LK   FLURRIES  12   7  79 VRB2      29.77R
PICKLE LAKE    PTCLDY    12   3  67 N3        29.71R
DRYDEN         CLEAR     18  10  73 SW9       29.73S WCI   6
KENORA         CLEAR     16   9  73 S9        29.74S WCI   4
$$
                *** MANITOBA***

CITY           SKY/WX    TMP DP  RH WIND       PRES   REMARKS
BRANDON        MOCLDY    39  32  75 W24       29.77S
DAUPHIN        LGT RAIN  37  34  87 W24G33    29.62F
ISLAND LAKE    FLURRIES  12   9  85 E6        29.74R WCI   3
PILOT MOUND      N/A     39  28  65 W13G22      N/A
THE PAS        PTCLDY     9   0  66 NE5       29.71R WCI   0
THOMPSON       LGT SNOW  10   5  79 NE6       29.78R WCI   1
WINNIPEG       CLEAR     32  25  74 SW12      29.75S WCI  23
LYNN LAKE      FLURRIES  10   9  92 E7        29.75R WCI   0
CHURCHILL      FLURRIES  -2  -6  84 E2        29.95S
GILLAM         FLURRIES   7   1  78 NE8       29.85R WCI  -6
$$
                ***SASKATCHEWAN***

CITY           SKY/WX    TMP DP  RH WIND       PRES   REMARKS
ESTEVAN        PTCLDY    34  23  64 W20       29.90F WCI  22
KINDERSLEY     PTCLDY    28  19  69 SW10      29.88S WCI  19
LLOYDMINSTER   PTCLDY    34  23  64 W10       29.80R
PRINCE ALBERT  PTCLDY    28  23  80 W8        29.74R WCI  20
REGINA         PTCLDY    36  27  69 W17       29.85F
YORKTON        CLOUDY    37  32  81 W25G32    29.68R
N. BATTLEFORD  CLEAR     36  25  64 W12       29.83R
LA RONGE       PTCLDY     7   0  72 W6        29.71  WCI  -3
SASKATOON      PTCLDY    36  28  75 W10       29.81R
SWIFT CURRENT  CLEAR     34  23  64 W14       29.91S WCI  24
$$
NOTE: THESE ARE AUTOMATED STATIONS WITH LIMITED QUALITY CONTROL
      "FAIR" INDICATES FEW OR NO CLOUDS BELOW 12,000 FEET WITH NO
      SIGNIFICANT WEATHER AND/OR OBSTRUCTIONS TO VISIBILITY.
      SKY/WX - SKY CONDITION AND SIGNIFICANT WEATHER.
      TMP - AIR TEMPERATURE.    DP   - DEWPOINT TEMPERATURE.
      RH  - RELATIVE HUMIDITY.  PRES - PRESSURE.
      HX  - HEAT INDEX.         WCI  - WIND CHILL INDEX.
$




USA.gov is the U.S. government's official web portal to all federal, state and local government web resources and services.